Time,TemperatureF,DewpointF,PressureIn,WindDirection,WindDirectionDegrees,WindSpeedMPH,WindSpeedGustMPH,Humidity,HourlyPrecipIn,Conditions,Clouds,dailyrainin,SoftwareType,DateUTC
2013-01-31 00:00:00,51.5,46.2,29.70,West,271,2.0,8.0,82,0.00,RA,,0.00,WeatherDisplay:10.37,2013-01-31 05:00:00,
2013-01-31 00:01:00,51.5,46.2,29.70,SSW,207,3.5,3.5,82,0.01,RA,,0.00,WeatherDisplay:10.37,2013-01-31 05:01:00,
2013-01-31 00:02:00,51.5,46.2,29.70,North,360,12.7,12.7,82,0.01,RA,,0.00,WeatherDisplay:10.37,2013-01-31 05:02:00,
2013-01-31 00:07:00,51.6,46.3,29.70,SSW,198,6.0,6.0,82,0.01,RA,,0.00,WeatherDisplay:10.37,2013-01-31 05:07:00,
2013-01-31 00:12:00,51.5,46.2,29.70,WNW,288,11.5,11.5,82,0.01,CLR,,0.00,WeatherDisplay:10.37,2013-01-31 05:12:00,
2013-01-31 00:17:00,51.5,46.5,29.71,North,360,3.5,3.5,83,0.01,CLR,,0.00,WeatherDisplay:10.37,2013-01-31 05:17:00,
2013-01-31 00:22:00,51.3,46.3,29.70,NNW,345,10.4,10.4,83,0.01,CLR,,0.00,WeatherDisplay:10.37,2013-01-31 05:22:00,
2013-01-31 00:27:00,51.1,46.4,29.70,North,360,1.0,1.2,84,0.01,CLR,,0.00,WeatherDisplay:10.37,2013-01-31 05:27:00,
2013-01-31 00:32:00,51.1,46.4,29.70,North,360,3.5,3.5,84,0.01,CLR,,0.00,WeatherDisplay:10.37,2013-01-31 05:32:00,
2013-01-31 00:37:00,51.3,46.3,29.70,NW,317,12.7,12.7,83,0.01,CLR,,0.00,WeatherDisplay:10.37,2013-01-31 05:37:00,
2013-01-31 00:42:00,51.3,46.3,29.71,North,360,9.2,9.2,83,0.01,CLR,,0.00,WeatherDisplay:10.37,2013-01-31 05:42:00,
2013-01-31 00:47:00,51.4,46.1,29.70,SSW,213,3.5,0.0,82,0.00,CLR,,0.00,WeatherDisplay:10.37,2013-01-31 05:47:00,
2013-01-31 00:52:00,51.3,46.0,29.71,SW,222,4.0,4.0,82,0.00,CLR,,0.00,WeatherDisplay:10.37,2013-01-31 05:52:00,
2013-01-31 00:57:00,51.3,46.0,29.71,West,281,3.5,3.5,82,0.00,CLR,,0.00,WeatherDisplay:10.37,2013-01-31 05:57:00,
2013-01-31 01:02:00,51.2,45.9,29.71,SW,229,3.5,3.5,82,0.00,CLR,,0.00,WeatherDisplay:10.37,2013-01-31 06:02:00,
2013-01-31 01:07:00,51.2,45.9,29.71,North,360,3.5,3.5,82,0.00,CLR,,0.00,WeatherDisplay:10.37,2013-01-31 06:07:00,
2013-01-31 01:12:00,51.2,45.9,29.71,SW,225,9.2,9.2,82,0.00,CLR,,0.00,WeatherDisplay:10.37,2013-01-31 06:12:00,
2013-01-31 01:17:00,51.3,45.7,29.71,SW,236,6.9,6.9,81,0.00,CLR,,0.00,WeatherDisplay:10.37,2013-01-31 06:17:00,
2013-01-31 01:22:00,51.2,45.9,29.73,West,271,4.6,4.6,82,0.00,CLR,,0.00,WeatherDisplay:10.37,2013-01-31 06:22:00,
2013-01-31 01:27:00,50.8,45.8,29.73,WSW,242,6.9,6.9,83,0.00,CLR,,0.00,WeatherDisplay:10.37,2013-01-31 06:27:00,
2013-01-31 01:32:00,50.0,44.4,29.74,SW,234,9.2,9.2,81,0.00,CLR,,0.00,WeatherDisplay:10.37,2013-01-31 06:32:00,
2013-01-31 01:37:00,49.3,41.0,29.75,North,360,16.1,16.1,73,0.00,CLR,,0.00,WeatherDisplay:10.37,2013-01-31 06:37:00,
2013-01-31 01:42:00,48.9,39.5,29.76,North,360,19.6,19.6,70,0.00,CLR,,0.00,WeatherDisplay:10.37,2013-01-31 06:42:00,
2013-01-31 01:47:00,48.6,38.9,29.75,North,360,2.3,2.3,69,0.00,CLR,,0.00,WeatherDisplay:10.37,2013-01-31 06:47:00,
2013-01-31 01:52:00,48.1,38.4,29.75,WSW,253,11.5,11.5,69,0.00,CLR,,0.00,WeatherDisplay:10.37,2013-01-31 06:52:00,
2013-01-31 01:57:00,48.0,39.0,29.75,WNW,293,11.5,11.5,71,0.00,CLR,,0.00,WeatherDisplay:10.37,2013-01-31 06:57:00,
2013-01-31 02:02:00,48.0,39.0,29.76,North,360,16.1,16.1,71,0.00,CLR,,0.00,WeatherDisplay:10.37,2013-01-31 07:02:00,
2013-01-31 02:07:00,47.8,38.8,29.77,SW,229,5.8,5.8,71,0.00,CLR,,0.00,WeatherDisplay:10.37,2013-01-31 07:07:00,
2013-01-31 02:12:00,47.5,38.2,29.77,North,360,19.6,19.6,70,0.00,CLR,,0.00,WeatherDisplay:10.37,2013-01-31 07:12:00,
2013-01-31 02:17:00,47.2,37.5,29.79,North,360,23.0,23.0,69,0.00,CLR,,0.00,WeatherDisplay:10.37,2013-01-31 07:17:00,
2013-01-31 02:22:00,46.7,36.7,29.79,North,360,20.7,20.7,68,0.00,CLR,,0.00,WeatherDisplay:10.37,2013-01-31 07:22:00,
2013-01-31 02:27:00,46.5,36.5,29.79,North,360,8.1,8.1,68,0.00,CLR,,0.00,WeatherDisplay:10.37,2013-01-31 07:27:00,
2013-01-31 02:32:00,46.2,36.6,29.79,North,360,9.2,9.2,69,0.00,CLR,,0.00,WeatherDisplay:10.37,2013-01-31 07:32:00,
2013-01-31 02:37:00,45.8,36.2,29.80,North,360,11.5,11.5,69,0.00,CLR,,0.00,WeatherDisplay:10.37,2013-01-31 07:37:00,
2013-01-31 02:42:00,45.6,36.4,29.81,WNW,300,9.2,9.2,70,0.00,CLR,,0.00,WeatherDisplay:10.37,2013-01-31 07:42:00,
2013-01-31 02:47:00,45.3,36.1,29.80,North,360,11.5,11.5,70,0.00,CLR,,0.00,WeatherDisplay:10.37,2013-01-31 07:47:00,
2013-01-31 02:52:00,45.1,36.3,29.81,North,360,10.4,10.4,71,0.00,CLR,,0.00,WeatherDisplay:10.37,2013-01-31 07:52:00,
2013-01-31 02:57:00,45.0,35.4,29.81,North,360,20.7,20.7,69,0.00,CLR,,0.00,WeatherDisplay:10.37,2013-01-31 07:57:00,
2013-01-31 03:02:00,45.0,35.1,29.82,North,360,12.7,12.7,68,0.00,CLR,,0.00,WeatherDisplay:10.37,2013-01-31 08:02:00,
2013-01-31 03:07:00,45.0,34.7,29.82,North,360,12.7,12.7,67,0.00,CLR,,0.00,WeatherDisplay:10.37,2013-01-31 08:07:00,
2013-01-31 03:12:00,45.0,34.7,29.82,North,360,3.5,3.5,67,0.00,CLR,,0.00,WeatherDisplay:10.37,2013-01-31 08:12:00,
2013-01-31 03:17:00,45.0,34.7,29.83,North,360,17.0,17.0,67,0.00,CLR,,0.00,WeatherDisplay:10.37,2013-01-31 08:17:00,
2013-01-31 03:22:00,44.9,34.2,29.83,North,360,13.8,13.8,66,0.00,CLR,,0.00,WeatherDisplay:10.37,2013-01-31 08:22:00,
2013-01-31 03:27:00,44.6,33.9,29.83,North,360,9.2,9.2,66,0.00,CLR,,0.00,WeatherDisplay:10.37,2013-01-31 08:27:00,
2013-01-31 03:32:00,44.3,33.7,29.83,North,360,16.1,16.1,66,0.00,CLR,,0.00,WeatherDisplay:10.37,2013-01-31 08:32:00,
2013-01-31 03:37:00,44.2,33.6,29.84,North,360,9.2,9.2,66,0.00,CLR,,0.00,WeatherDisplay:10.37,2013-01-31 08:37:00,
2013-01-31 03:42:00,44.0,33.7,29.83,North,360,11.5,11.5,67,0.00,CLR,,0.00,WeatherDisplay:10.37,2013-01-31 08:42:00,
2013-01-31 03:47:00,43.9,33.3,29.84,North,360,11.5,11.5,66,0.00,CLR,,0.00,WeatherDisplay:10.37,2013-01-31 08:47:00,
2013-01-31 03:52:00,43.8,33.6,29.83,NW,323,2.3,2.3,67,0.00,CLR,,0.00,WeatherDisplay:10.37,2013-01-31 08:52:00,
2013-01-31 03:57:00,43.5,33.3,29.84,North,360,4.6,4.6,67,0.00,CLR,,0.00,WeatherDisplay:10.37,2013-01-31 08:57:00,
2013-01-31 04:02:00,43.4,33.2,29.84,SSW,205,10.4,10.4,67,0.00,CLR,,0.00,WeatherDisplay:10.37,2013-01-31 09:02:00,
2013-01-31 04:07:00,43.5,33.3,29.84,SSW,200,17.3,17.3,67,0.00,CLR,,0.00,WeatherDisplay:10.37,2013-01-31 09:07:00,
2013-01-31 04:12:00,43.4,33.2,29.84,North,360,11.5,11.5,67,0.00,CLR,,0.00,WeatherDisplay:10.37,2013-01-31 09:12:00,
2013-01-31 04:17:00,43.3,32.7,29.84,North,360,15.0,15.0,66,0.00,CLR,,0.00,WeatherDisplay:10.37,2013-01-31 09:17:00,
2013-01-31 04:22:00,43.3,32.7,29.84,North,360,9.2,9.2,66,0.00,CLR,,0.00,WeatherDisplay:10.37,2013-01-31 09:22:00,
2013-01-31 04:27:00,43.2,32.6,29.84,North,360,9.2,9.2,66,0.00,CLR,,0.00,WeatherDisplay:10.37,2013-01-31 09:27:00,
2013-01-31 04:32:00,43.0,32.4,29.84,WSW,240,10.4,10.4,66,0.00,CLR,,0.00,WeatherDisplay:10.37,2013-01-31 09:32:00,
2013-01-31 04:37:00,42.9,32.3,29.85,West,279,13.8,13.8,66,0.00,CLR,,0.00,WeatherDisplay:10.37,2013-01-31 09:37:00,
2013-01-31 04:42:00,42.7,32.5,29.85,North,360,11.5,11.5,67,0.00,CLR,,0.00,WeatherDisplay:10.37,2013-01-31 09:42:00,
2013-01-31 04:47:00,42.6,32.4,29.86,North,360,12.7,12.7,67,0.00,CLR,,0.00,WeatherDisplay:10.37,2013-01-31 09:47:00,
2013-01-31 04:52:00,42.5,32.3,29.86,North,360,12.7,12.7,67,0.00,CLR,,0.00,WeatherDisplay:10.37,2013-01-31 09:52:00,
2013-01-31 04:57:00,42.3,31.7,29.86,North,360,0.0,0.0,66,0.00,CLR,,0.00,WeatherDisplay:10.37,2013-01-31 09:57:00,
2013-01-31 05:02:00,41.9,31.4,29.86,North,360,1.2,1.2,66,0.00,CLR,,0.00,WeatherDisplay:10.37,2013-01-31 10:02:00,
2013-01-31 05:07:00,41.7,30.4,29.86,WNW,303,4.6,4.6,64,0.00,CLR,,0.00,WeatherDisplay:10.37,2013-01-31 10:07:00,
2013-01-31 05:12:00,41.6,29.9,29.87,North,360,10.4,10.4,63,0.00,CLR,,0.00,WeatherDisplay:10.37,2013-01-31 10:12:00,
2013-01-31 05:17:00,41.3,29.3,29.87,North,360,9.2,9.2,62,0.00,CLR,,0.00,WeatherDisplay:10.37,2013-01-31 10:17:00,
2013-01-31 05:23:00,41.1,28.3,29.88,North,360,9.2,9.2,60,0.00,CLR,,0.00,WeatherDisplay:10.37,2013-01-31 10:23:00,
2013-01-31 05:28:00,41.0,29.7,29.88,North,360,6.9,6.9,64,0.00,CLR,,0.00,WeatherDisplay:10.37,2013-01-31 10:28:00,
2013-01-31 05:33:00,40.7,28.7,29.88,WNW,298,4.0,4.0,62,0.00,CLR,,0.00,WeatherDisplay:10.37,2013-01-31 10:33:00,
2013-01-31 05:38:00,40.4,28.8,29.89,North,360,10.4,10.4,63,0.00,CLR,,0.00,WeatherDisplay:10.37,2013-01-31 10:38:00,
2013-01-31 05:43:00,40.3,27.9,29.90,North,360,11.5,11.5,61,0.00,CLR,,0.00,WeatherDisplay:10.37,2013-01-31 10:43:00,
2013-01-31 05:48:00,40.3,27.9,29.90,North,360,17.3,17.3,61,0.00,CLR,,0.00,WeatherDisplay:10.37,2013-01-31 10:48:00,
2013-01-31 05:53:00,40.1,27.7,29.91,North,360,24.0,24.0,61,0.00,CLR,,0.00,WeatherDisplay:10.37,2013-01-31 10:53:00,
2013-01-31 05:58:00,40.0,27.2,29.90,North,360,11.5,11.5,60,0.00,CLR,,0.00,WeatherDisplay:10.37,2013-01-31 10:58:00,
2013-01-31 06:03:00,39.8,26.6,29.91,WNW,300,13.8,13.8,59,0.00,CLR,,0.00,WeatherDisplay:10.37,2013-01-31 11:03:00,
2013-01-31 06:08:00,39.7,26.9,29.91,WNW,286,9.2,9.2,60,0.00,CLR,,0.00,WeatherDisplay:10.37,2013-01-31 11:08:00,
2013-01-31 06:13:00,39.4,26.7,29.91,WNW,289,7.0,7.0,60,0.00,CLR,,0.00,WeatherDisplay:10.37,2013-01-31 11:13:00,
2013-01-31 06:18:00,39.4,26.2,29.92,North,360,11.0,11.0,59,0.00,CLR,,0.00,WeatherDisplay:10.37,2013-01-31 11:18:00,
2013-01-31 06:23:00,39.3,26.6,29.92,West,276,11.5,11.5,60,0.00,CLR,,0.00,WeatherDisplay:10.37,2013-01-31 11:23:00,
2013-01-31 06:28:00,39.2,26.1,29.92,North,360,6.9,6.9,59,0.00,CLR,,0.00,WeatherDisplay:10.37,2013-01-31 11:28:00,
2013-01-31 06:33:00,39.1,26.0,29.93,WNW,287,13.8,13.8,59,0.00,CLR,,0.00,WeatherDisplay:10.37,2013-01-31 11:33:00,
2013-01-31 06:38:00,39.1,26.0,29.93,NW,311,4.0,4.0,59,0.00,CLR,,0.00,WeatherDisplay:10.37,2013-01-31 11:38:00,
2013-01-31 06:43:00,38.9,26.2,29.94,West,271,4.6,4.6,60,0.00,CLR,,0.00,WeatherDisplay:10.37,2013-01-31 11:43:00,
2013-01-31 06:48:00,38.7,26.0,29.94,North,360,12.7,12.7,60,0.00,CLR,,0.00,WeatherDisplay:10.37,2013-01-31 11:48:00,
2013-01-31 06:53:00,38.7,26.0,29.94,North,360,1.2,1.2,60,0.00,CLR,,0.00,WeatherDisplay:10.37,2013-01-31 11:53:00,
2013-01-31 06:58:00,38.6,25.9,29.94,North,360,5.8,5.8,60,0.00,CLR,,0.00,WeatherDisplay:10.37,2013-01-31 11:58:00,
2013-01-31 07:03:00,38.5,25.8,29.94,West,268,3.5,3.5,60,0.00,CLR,,0.00,WeatherDisplay:10.37,2013-01-31 12:03:00,
2013-01-31 07:08:00,38.3,25.6,29.93,WNW,300,10.4,10.4,60,0.00,CLR,,0.00,WeatherDisplay:10.37,2013-01-31 12:08:00,
2013-01-31 07:13:00,38.2,25.9,29.94,WNW,284,6.0,6.0,61,0.00,CLR,,0.00,WeatherDisplay:10.37,2013-01-31 12:13:00,
2013-01-31 07:18:00,38.2,25.9,29.95,North,360,9.2,9.2,61,0.00,CLR,,0.00,WeatherDisplay:10.37,2013-01-31 12:18:00,
2013-01-31 07:23:00,38.2,25.9,29.95,WSW,240,4.6,4.6,61,0.00,CLR,,0.00,WeatherDisplay:10.37,2013-01-31 12:23:00,
2013-01-31 07:28:00,38.0,25.7,29.95,West,280,0.0,0.0,61,0.00,CLR,,0.00,WeatherDisplay:10.37,2013-01-31 12:28:00,
2013-01-31 07:33:00,37.9,26.0,29.95,North,360,1.0,0.0,62,0.00,CLR,,0.00,WeatherDisplay:10.37,2013-01-31 12:33:00,
2013-01-31 07:38:00,37.8,25.9,29.96,SW,222,0.0,0.0,62,0.00,CLR,,0.00,WeatherDisplay:10.37,2013-01-31 12:38:00,
2013-01-31 07:43:00,37.7,26.2,29.96,NW,310,3.5,3.5,63,0.00,CLR,,0.00,WeatherDisplay:10.37,2013-01-31 12:43:00,
2013-01-31 07:48:00,37.7,26.2,29.96,WNW,303,2.3,2.3,63,0.00,CLR,,0.00,WeatherDisplay:10.37,2013-01-31 12:48:00,
2013-01-31 07:53:00,37.8,26.3,29.97,West,263,0.0,0.0,63,0.00,CLR,,0.00,WeatherDisplay:10.37,2013-01-31 12:53:00,
2013-01-31 07:58:00,37.9,26.4,29.97,North,360,1.2,1.2,63,0.00,CLR,,0.00,WeatherDisplay:10.37,2013-01-31 12:58:00,
2013-01-31 08:03:00,38.0,26.9,29.97,SW,217,5.0,5.0,64,0.00,CLR,,0.00,WeatherDisplay:10.37,2013-01-31 13:03:00,
2013-01-31 08:08:00,38.2,27.1,29.98,WNW,286,4.6,4.6,64,0.00,CLR,,0.00,WeatherDisplay:10.37,2013-01-31 13:08:00,
2013-01-31 08:13:00,38.3,27.2,29.98,West,272,6.9,6.9,64,0.00,CLR,,0.00,WeatherDisplay:10.37,2013-01-31 13:13:00,
2013-01-31 08:18:00,38.5,27.4,29.99,North,360,5.8,5.8,64,0.00,CLR,,0.00,WeatherDisplay:10.37,2013-01-31 13:18:00,
2013-01-31 08:23:00,38.6,27.8,29.99,North,360,6.9,6.9,65,0.00,CLR,,0.00,WeatherDisplay:10.37,2013-01-31 13:23:00,
2013-01-31 08:28:00,38.8,27.7,29.99,WSW,240,12.7,12.7,64,0.00,CLR,,0.00,WeatherDisplay:10.37,2013-01-31 13:28:00,
2013-01-31 08:33:00,38.9,28.1,29.99,NW,304,10.0,10.0,65,0.00,CLR,,0.00,WeatherDisplay:10.37,2013-01-31 13:33:00,
2013-01-31 08:38:00,39.0,27.8,29.99,NNW,327,4.6,4.6,64,0.00,CLR,,0.00,WeatherDisplay:10.37,2013-01-31 13:38:00,
2013-01-31 08:43:00,39.2,28.0,30.00,North,360,10.4,10.4,64,0.00,CLR,,0.00,WeatherDisplay:10.37,2013-01-31 13:43:00,
2013-01-31 08:48:00,39.5,28.3,30.00,WNW,289,10.0,10.0,64,0.00,CLR,,0.00,WeatherDisplay:10.37,2013-01-31 13:48:00,
2013-01-31 08:53:00,39.6,27.6,30.00,North,360,11.5,11.5,62,0.00,CLR,,0.00,WeatherDisplay:10.37,2013-01-31 13:53:00,
2013-01-31 08:58:00,39.8,27.8,30.00,South,191,9.2,9.2,62,0.00,CLR,,0.00,WeatherDisplay:10.37,2013-01-31 13:58:00,
2013-01-31 09:03:00,40.1,27.7,30.00,WNW,300,6.9,6.9,61,0.00,CLR,,0.00,WeatherDisplay:10.37,2013-01-31 14:03:00,
2013-01-31 09:08:00,40.2,27.4,30.00,NW,304,7.0,7.0,60,0.00,CLR,,0.00,WeatherDisplay:10.37,2013-01-31 14:08:00,
2013-01-31 09:13:00,40.3,27.5,30.00,North,360,3.0,3.0,60,0.00,CLR,,0.00,WeatherDisplay:10.37,2013-01-31 14:13:00,
2013-01-31 09:18:00,40.6,27.4,30.00,West,269,9.2,9.2,59,0.00,CLR,,0.00,WeatherDisplay:10.37,2013-01-31 14:18:00,
2013-01-31 09:23:00,40.7,27.5,30.00,North,360,7.0,7.0,59,0.00,CLR,,0.00,WeatherDisplay:10.37,2013-01-31 14:23:00,
2013-01-31 09:28:00,40.8,27.2,30.00,North,360,13.8,13.8,58,0.00,CLR,,0.00,WeatherDisplay:10.37,2013-01-31 14:28:00,
2013-01-31 09:33:00,40.9,26.8,30.00,North,360,11.5,11.5,57,0.00,CLR,,0.00,WeatherDisplay:10.37,2013-01-31 14:33:00,
2013-01-31 09:38:00,41.4,28.1,30.00,NW,308,4.6,4.6,59,0.00,CLR,,0.00,WeatherDisplay:10.37,2013-01-31 14:38:00,
2013-01-31 09:43:00,41.7,27.6,30.00,North,360,6.0,6.0,57,0.00,CLR,,0.00,WeatherDisplay:10.37,2013-01-31 14:43:00,
2013-01-31 09:48:00,41.5,27.4,30.01,North,360,11.5,11.5,57,0.00,CLR,,0.00,WeatherDisplay:10.37,2013-01-31 14:48:00,
2013-01-31 09:53:00,41.7,27.6,30.01,North,360,6.9,6.9,57,0.00,CLR,,0.00,WeatherDisplay:10.37,2013-01-31 14:53:00,
2013-01-31 09:58:00,41.8,27.2,30.00,North,360,5.8,5.8,56,0.00,CLR,,0.00,WeatherDisplay:10.37,2013-01-31 14:58:00,
2013-01-31 10:03:00,42.2,27.2,30.01,North,360,12.7,12.7,55,0.00,CLR,,0.00,WeatherDisplay:10.37,2013-01-31 15:03:00,
2013-01-31 10:08:00,42.3,26.8,30.02,North,360,12.7,12.7,54,0.00,CLR,,0.00,WeatherDisplay:10.37,2013-01-31 15:08:00,
2013-01-31 10:13:00,42.5,27.0,30.02,North,360,4.6,4.6,54,0.00,CLR,,0.00,WeatherDisplay:10.37,2013-01-31 15:13:00,
2013-01-31 10:18:00,43.0,27.5,30.02,SW,234,6.9,6.9,54,0.00,CLR,,0.00,WeatherDisplay:10.37,2013-01-31 15:18:00,
2013-01-31 10:23:00,43.4,27.8,30.02,North,360,10.4,10.4,54,0.00,CLR,,0.00,WeatherDisplay:10.37,2013-01-31 15:23:00,
2013-01-31 10:28:00,43.3,27.3,30.02,North,360,5.0,5.0,53,0.00,CLR,,0.00,WeatherDisplay:10.37,2013-01-31 15:28:00,
2013-01-31 10:33:00,43.5,27.5,30.02,North,360,10.4,10.4,53,0.00,CLR,,0.00,WeatherDisplay:10.37,2013-01-31 15:33:00,
2013-01-31 10:38:00,43.6,27.1,30.02,WSW,242,11.0,11.0,52,0.00,CLR,,0.00,WeatherDisplay:10.37,2013-01-31 15:38:00,
2013-01-31 10:43:00,43.7,28.1,30.02,SW,230,4.6,4.6,54,0.00,CLR,,0.00,WeatherDisplay:10.37,2013-01-31 15:43:00,
2013-01-31 10:48:00,44.3,28.7,30.02,North,360,11.0,11.0,54,0.00,CLR,,0.00,WeatherDisplay:10.37,2013-01-31 15:48:00,
2013-01-31 10:53:00,44.3,28.7,30.02,West,275,5.8,5.8,54,0.00,CLR,,0.00,WeatherDisplay:10.37,2013-01-31 15:53:00,
2013-01-31 10:58:00,45.0,27.9,30.02,North,360,9.2,9.2,51,0.00,CLR,,0.00,WeatherDisplay:10.37,2013-01-31 15:58:00,
2013-01-31 11:03:00,45.2,27.6,30.02,North,360,9.2,9.2,50,0.00,CLR,,0.00,WeatherDisplay:10.37,2013-01-31 16:03:00,
2013-01-31 11:08:00,45.4,28.3,30.02,WNW,300,5.8,5.8,51,0.00,CLR,,0.00,WeatherDisplay:10.37,2013-01-31 16:08:00,
2013-01-31 11:13:00,45.6,27.5,30.02,SW,222,10.4,10.4,49,0.00,CLR,,0.00,WeatherDisplay:10.37,2013-01-31 16:13:00,
2013-01-31 11:18:00,45.5,27.4,30.02,WNW,286,3.5,3.5,49,0.00,CLR,,0.00,WeatherDisplay:10.37,2013-01-31 16:18:00,
2013-01-31 11:23:00,45.6,27.5,30.02,North,360,11.5,11.5,49,0.00,CLR,,0.00,WeatherDisplay:10.37,2013-01-31 16:23:00,
2013-01-31 11:28:00,45.8,26.7,30.02,North,360,11.5,11.5,47,0.00,CLR,,0.00,WeatherDisplay:10.37,2013-01-31 16:28:00,
2013-01-31 11:33:00,46.3,27.7,30.02,North,360,11.5,11.5,48,0.00,CLR,,0.00,WeatherDisplay:10.37,2013-01-31 16:33:00,
2013-01-31 11:38:00,46.4,27.8,30.03,West,267,11.5,11.5,48,0.00,CLR,,0.00,WeatherDisplay:10.37,2013-01-31 16:38:00,
2013-01-31 11:43:00,46.4,27.2,30.03,North,360,15.0,15.0,47,0.00,CLR,,0.00,WeatherDisplay:10.37,2013-01-31 16:43:00,
2013-01-31 11:48:00,46.8,27.6,30.02,North,360,11.5,11.5,47,0.00,CLR,,0.00,WeatherDisplay:10.37,2013-01-31 16:48:00,
2013-01-31 11:53:00,47.1,27.4,30.02,North,360,9.0,9.0,46,0.00,CLR,,0.00,WeatherDisplay:10.37,2013-01-31 16:53:00,
2013-01-31 11:58:00,47.0,27.8,30.03,North,360,9.0,9.0,47,0.00,CLR,,0.00,WeatherDisplay:10.37,2013-01-31 16:58:00,
2013-01-31 12:03:00,47.2,27.5,30.03,North,360,9.2,9.2,46,0.00,CLR,,0.00,WeatherDisplay:10.37,2013-01-31 17:03:00,
2013-01-31 12:08:00,47.9,28.1,30.02,North,360,3.5,3.5,46,0.00,CLR,,0.00,WeatherDisplay:10.37,2013-01-31 17:08:00,
2013-01-31 12:13:00,48.2,27.8,30.02,West,272,16.1,16.1,45,0.00,CLR,,0.00,WeatherDisplay:10.37,2013-01-31 17:13:00,
2013-01-31 12:18:00,48.1,27.2,30.02,West,263,17.3,17.3,44,0.00,CLR,,0.00,WeatherDisplay:10.37,2013-01-31 17:18:00,
2013-01-31 12:23:00,48.1,27.7,30.02,NW,315,5.8,5.8,45,0.00,CLR,,0.00,WeatherDisplay:10.37,2013-01-31 17:23:00,
2013-01-31 12:28:00,48.6,27.1,30.02,WNW,294,10.4,10.4,43,0.00,CLR,,0.00,WeatherDisplay:10.37,2013-01-31 17:28:00,
2013-01-31 12:33:00,48.8,27.3,30.02,North,360,12.7,12.7,43,0.00,CLR,,0.00,WeatherDisplay:10.37,2013-01-31 17:33:00,
2013-01-31 12:38:00,49.0,26.9,30.02,North,360,15.0,15.0,42,0.00,CLR,,0.00,WeatherDisplay:10.37,2013-01-31 17:38:00,
2013-01-31 12:43:00,49.2,25.3,30.02,North,360,15.0,15.0,39,0.00,CLR,,0.00,WeatherDisplay:10.37,2013-01-31 17:43:00,
2013-01-31 12:48:00,48.8,24.9,30.02,North,360,16.1,16.1,39,0.00,CLR,,0.00,WeatherDisplay:10.37,2013-01-31 17:48:00,
2013-01-31 12:53:00,48.9,25.0,30.02,North,360,19.6,19.6,39,0.00,CLR,,0.00,WeatherDisplay:10.37,2013-01-31 17:53:00,
2013-01-31 12:58:00,49.0,25.1,30.02,West,265,13.8,13.8,39,0.00,CLR,,0.00,WeatherDisplay:10.37,2013-01-31 17:58:00,
2013-01-31 13:03:00,49.6,25.6,30.02,South,188,13.8,13.8,39,0.00,CLR,,0.00,WeatherDisplay:10.37,2013-01-31 18:03:00,
2013-01-31 13:08:00,49.4,25.4,30.02,North,360,4.6,4.6,39,0.00,CLR,,0.00,WeatherDisplay:10.37,2013-01-31 18:08:00,
2013-01-31 13:13:00,49.6,25.0,30.02,North,360,11.5,11.5,38,0.00,CLR,,0.00,WeatherDisplay:10.37,2013-01-31 18:13:00,
2013-01-31 13:18:00,49.9,25.9,30.02,North,360,3.5,3.5,39,0.00,CLR,,0.00,WeatherDisplay:10.37,2013-01-31 18:18:00,
2013-01-31 13:23:00,49.7,25.1,30.01,SSW,203,4.6,4.6,38,0.00,CLR,,0.00,WeatherDisplay:10.37,2013-01-31 18:23:00,
2013-01-31 13:28:00,49.6,24.4,30.01,North,360,9.2,9.2,37,0.00,CLR,,0.00,WeatherDisplay:10.37,2013-01-31 18:28:00,
2013-01-31 13:33:00,50.0,24.7,30.02,North,360,12.7,12.7,37,0.00,CLR,,0.00,WeatherDisplay:10.37,2013-01-31 18:33:00,
2013-01-31 13:38:00,50.0,24.1,30.01,North,360,11.5,11.5,36,0.00,CLR,,0.00,WeatherDisplay:10.37,2013-01-31 18:38:00,
2013-01-31 13:43:00,50.5,24.5,30.01,North,360,10.4,10.4,36,0.00,CLR,,0.00,WeatherDisplay:10.37,2013-01-31 18:43:00,
2013-01-31 13:48:00,50.6,23.9,30.00,North,360,4.6,4.6,35,0.00,CLR,,0.00,WeatherDisplay:10.37,2013-01-31 18:48:00,
2013-01-31 13:53:00,50.8,24.1,30.00,North,360,9.2,9.2,35,0.00,CLR,,0.00,WeatherDisplay:10.37,2013-01-31 18:53:00,
2013-01-31 13:59:00,51.0,25.0,30.00,North,360,4.6,4.6,36,0.00,CLR,,0.00,WeatherDisplay:10.37,2013-01-31 18:59:00,
2013-01-31 14:04:00,51.2,25.1,30.01,North,360,6.0,6.0,36,0.00,CLR,,0.00,WeatherDisplay:10.37,2013-01-31 19:04:00,
2013-01-31 14:09:00,51.2,23.0,30.01,North,360,18.4,18.4,33,0.00,CLR,,0.00,WeatherDisplay:10.37,2013-01-31 19:09:00,
2013-01-31 14:14:00,50.9,24.2,30.01,North,360,3.5,3.5,35,0.00,CLR,,0.00,WeatherDisplay:10.37,2013-01-31 19:14:00,
2013-01-31 14:19:00,51.0,23.6,30.01,North,360,12.7,12.7,34,0.00,CLR,,0.00,WeatherDisplay:10.37,2013-01-31 19:19:00,
2013-01-31 14:24:00,51.3,23.8,30.01,North,360,15.0,15.0,34,0.00,CLR,,0.00,WeatherDisplay:10.37,2013-01-31 19:24:00,
2013-01-31 14:29:00,51.4,23.9,30.02,North,360,9.2,9.2,34,0.00,CLR,,0.00,WeatherDisplay:10.37,2013-01-31 19:29:00,
2013-01-31 14:34:00,51.8,24.3,30.02,North,360,12.0,12.0,34,0.00,CLR,,0.00,WeatherDisplay:10.37,2013-01-31 19:34:00,
2013-01-31 14:39:00,51.7,23.5,30.01,North,360,17.3,17.3,33,0.00,CLR,,0.00,WeatherDisplay:10.37,2013-01-31 19:39:00,
2013-01-31 14:44:00,51.9,24.4,30.02,North,360,4.6,4.6,34,0.00,CLR,,0.00,WeatherDisplay:10.37,2013-01-31 19:44:00,
2013-01-31 14:49:00,51.9,23.7,30.02,North,360,10.4,10.4,33,0.00,CLR,,0.00,WeatherDisplay:10.37,2013-01-31 19:49:00,
2013-01-31 14:54:00,51.9,23.7,30.01,North,360,11.5,11.5,33,0.00,CLR,,0.00,WeatherDisplay:10.37,2013-01-31 19:54:00,
2013-01-31 14:59:00,52.0,23.8,30.01,North,360,17.3,17.3,33,0.00,CLR,,0.00,WeatherDisplay:10.37,2013-01-31 19:59:00,
2013-01-31 15:04:00,52.4,24.1,30.01,North,360,8.1,8.1,33,0.00,CLR,,0.00,WeatherDisplay:10.37,2013-01-31 20:04:00,
2013-01-31 15:09:00,52.9,25.3,30.02,North,360,11.5,11.5,34,0.00,CLR,,0.00,WeatherDisplay:10.37,2013-01-31 20:09:00,
2013-01-31 15:14:00,53.0,24.6,30.02,North,360,13.8,13.8,33,0.00,CLR,,0.00,WeatherDisplay:10.37,2013-01-31 20:14:00,
2013-01-31 15:19:00,52.8,24.5,30.02,SW,223,9.2,9.2,33,0.00,CLR,,0.00,WeatherDisplay:10.37,2013-01-31 20:19:00,
2013-01-31 15:24:00,52.8,24.5,30.02,North,360,11.5,11.5,33,0.00,CLR,,0.00,WeatherDisplay:10.37,2013-01-31 20:24:00,
2013-01-31 15:29:00,52.9,24.5,30.02,North,360,12.7,12.7,33,0.00,CLR,,0.00,WeatherDisplay:10.37,2013-01-31 20:29:00,
2013-01-31 15:34:00,52.6,23.5,30.02,North,360,13.8,13.8,32,0.00,CLR,,0.00,WeatherDisplay:10.37,2013-01-31 20:34:00,
2013-01-31 15:39:00,52.6,24.3,30.02,North,360,11.5,11.5,33,0.00,CLR,,0.00,WeatherDisplay:10.37,2013-01-31 20:39:00,
2013-01-31 15:44:00,52.6,24.3,30.03,North,360,15.0,15.0,33,0.00,CLR,,0.00,WeatherDisplay:10.37,2013-01-31 20:44:00,
2013-01-31 15:49:00,52.3,23.3,30.03,North,360,18.4,18.4,32,0.00,CLR,,0.00,WeatherDisplay:10.37,2013-01-31 20:49:00,
2013-01-31 15:54:00,52.2,23.2,30.03,NNW,345,12.7,12.7,32,0.00,CLR,,0.00,WeatherDisplay:10.37,2013-01-31 20:54:00,
2013-01-31 15:59:00,52.1,23.8,30.04,North,360,11.5,11.5,33,0.00,CLR,,0.00,WeatherDisplay:10.37,2013-01-31 20:59:00,
2013-01-31 16:04:00,51.9,23.7,30.04,North,360,9.2,9.2,33,0.00,CLR,,0.00,WeatherDisplay:10.37,2013-01-31 21:04:00,
2013-01-31 16:09:00,52.0,23.8,30.03,North,360,5.8,5.8,33,0.00,CLR,,0.00,WeatherDisplay:10.37,2013-01-31 21:09:00,
2013-01-31 16:14:00,52.0,24.5,30.04,North,360,5.8,5.8,34,0.00,CLR,,0.00,WeatherDisplay:10.37,2013-01-31 21:14:00,
2013-01-31 16:19:00,51.9,24.4,30.03,North,360,6.9,6.9,34,0.00,CLR,,0.00,WeatherDisplay:10.37,2013-01-31 21:19:00,
2013-01-31 16:24:00,52.3,25.4,30.03,North,360,2.3,2.3,35,0.00,CLR,,0.00,WeatherDisplay:10.37,2013-01-31 21:24:00,
2013-01-31 16:29:00,52.5,25.6,30.04,North,360,5.0,5.0,35,0.00,CLR,,0.00,WeatherDisplay:10.37,2013-01-31 21:29:00,
2013-01-31 16:34:00,52.2,24.6,30.04,North,360,3.5,3.5,34,0.00,CLR,,0.00,WeatherDisplay:10.37,2013-01-31 21:34:00,
2013-01-31 16:39:00,52.0,25.2,30.04,North,360,3.5,3.5,35,0.00,CLR,,0.00,WeatherDisplay:10.37,2013-01-31 21:39:00,
2013-01-31 16:44:00,51.5,24.0,30.04,North,360,11.5,11.5,34,0.00,CLR,,0.00,WeatherDisplay:10.37,2013-01-31 21:44:00,
2013-01-31 16:49:00,51.1,24.4,30.05,North,360,5.0,5.0,35,0.00,CLR,,0.00,WeatherDisplay:10.37,2013-01-31 21:49:00,
2013-01-31 16:54:00,51.0,24.3,30.05,North,360,11.5,11.5,35,0.00,CLR,,0.00,WeatherDisplay:10.37,2013-01-31 21:54:00,
2013-01-31 16:59:00,51.0,24.3,30.05,North,360,3.5,3.5,35,0.00,CLR,,0.00,WeatherDisplay:10.37,2013-01-31 21:59:00,
2013-01-31 17:04:00,50.8,24.8,30.05,SW,214,6.0,6.0,36,0.00,CLR,,0.00,WeatherDisplay:10.37,2013-01-31 22:04:00,
2013-01-31 17:09:00,50.6,23.9,30.05,North,360,17.3,17.3,35,0.00,CLR,,0.00,WeatherDisplay:10.37,2013-01-31 22:09:00,
2013-01-31 17:14:00,50.4,24.4,30.05,North,360,5.8,5.8,36,0.00,CLR,,0.00,WeatherDisplay:10.37,2013-01-31 22:14:00,
2013-01-31 17:19:00,50.0,24.7,30.05,North,360,5.8,5.8,37,0.00,CLR,,0.00,WeatherDisplay:10.37,2013-01-31 22:19:00,
2013-01-31 17:24:00,49.7,25.1,30.05,North,360,1.2,1.2,38,0.00,CLR,,0.00,WeatherDisplay:10.37,2013-01-31 22:24:00,
2013-01-31 17:29:00,49.4,24.2,30.05,NNW,348,4.6,4.6,37,0.00,CLR,,0.00,WeatherDisplay:10.37,2013-01-31 22:29:00,
2013-01-31 17:34:00,49.2,24.6,30.05,North,360,2.3,2.3,38,0.00,CLR,,0.00,WeatherDisplay:10.37,2013-01-31 22:34:00,
2013-01-31 17:39:00,48.8,24.9,30.05,North,360,1.2,0.0,39,0.00,CLR,,0.00,WeatherDisplay:10.37,2013-01-31 22:39:00,
2013-01-31 17:44:00,48.5,24.6,30.06,SW,234,0.0,0.0,39,0.00,CLR,,0.00,WeatherDisplay:10.37,2013-01-31 22:44:00,
2013-01-31 17:49:00,48.4,24.6,30.06,North,360,2.3,2.3,39,0.00,CLR,,0.00,WeatherDisplay:10.37,2013-01-31 22:49:00,
2013-01-31 17:54:00,48.2,25.0,30.06,North,360,5.8,5.8,40,0.00,CLR,,0.00,WeatherDisplay:10.37,2013-01-31 22:54:00,
2013-01-31 17:59:00,47.9,24.7,30.06,North,360,10.4,10.4,40,0.00,CLR,,0.00,WeatherDisplay:10.37,2013-01-31 22:59:00,
2013-01-31 18:04:00,47.7,25.1,30.06,North,360,5.8,5.8,41,0.00,CLR,,0.00,WeatherDisplay:10.37,2013-01-31 23:04:00,
2013-01-31 18:09:00,47.4,25.4,30.07,North,360,0.0,0.0,42,0.00,CLR,,0.00,WeatherDisplay:10.37,2013-01-31 23:09:00,
2013-01-31 18:14:00,47.2,25.3,30.07,North,360,2.3,2.3,42,0.00,CLR,,0.00,WeatherDisplay:10.37,2013-01-31 23:14:00,
2013-01-31 18:19:00,47.2,25.3,30.08,North,360,0.0,0.0,42,0.00,CLR,,0.00,WeatherDisplay:10.37,2013-01-31 23:19:00,
2013-01-31 18:24:00,47.0,25.1,30.08,North,360,1.2,0.0,42,0.00,CLR,,0.00,WeatherDisplay:10.37,2013-01-31 23:24:00,
2013-01-31 18:29:00,46.8,24.9,30.08,North,360,1.2,0.0,42,0.00,CLR,,0.00,WeatherDisplay:10.37,2013-01-31 23:29:00,
2013-01-31 18:34:00,46.6,25.3,30.08,North,360,0.0,0.2,43,0.00,CLR,,0.00,WeatherDisplay:10.37,2013-01-31 23:34:00,
2013-01-31 18:39:00,46.3,25.0,30.08,North,360,0.0,0.0,43,0.00,CLR,,0.00,WeatherDisplay:10.37,2013-01-31 23:39:00,
2013-01-31 18:44:00,46.1,25.4,30.08,North,360,1.2,0.0,44,0.00,CLR,,0.00,WeatherDisplay:10.37,2013-01-31 23:44:00,
2013-01-31 18:49:00,45.8,25.6,30.08,North,360,0.0,0.0,45,0.00,CLR,,0.00,WeatherDisplay:10.37,2013-01-31 23:49:00,
2013-01-31 18:54:00,45.5,25.4,30.08,North,360,0.0,0.0,45,0.00,CLR,,0.00,WeatherDisplay:10.37,2013-01-31 23:54:00,
2013-01-31 18:59:00,45.3,25.7,30.08,North,360,0.0,0.0,46,0.00,CLR,,0.00,WeatherDisplay:10.37,2013-01-31 23:59:00,
2013-01-31 19:04:00,45.1,25.5,30.08,North,360,0.0,0.0,46,0.00,CLR,,0.00,WeatherDisplay:10.37,2013-02-01 00:04:00,
2013-01-31 19:09:00,44.8,25.8,30.09,North,360,0.0,0.0,47,0.00,CLR,,0.00,WeatherDisplay:10.37,2013-02-01 00:09:00,
2013-01-31 19:14:00,44.6,25.6,30.09,North,360,1.2,0.0,47,0.00,CLR,,0.00,WeatherDisplay:10.37,2013-02-01 00:14:00,
2013-01-31 19:19:00,44.7,25.7,30.09,North,360,1.2,1.2,47,0.00,CLR,,0.00,WeatherDisplay:10.37,2013-02-01 00:19:00,
2013-01-31 19:24:00,44.6,25.6,30.09,North,360,0.0,0.0,47,0.00,CLR,,0.00,WeatherDisplay:10.37,2013-02-01 00:24:00,
2013-01-31 19:29:00,44.3,25.8,30.09,North,360,0.0,0.0,48,0.00,CLR,,0.00,WeatherDisplay:10.37,2013-02-01 00:29:00,
2013-01-31 19:34:00,44.0,25.5,30.09,North,360,0.0,0.0,48,0.00,CLR,,0.00,WeatherDisplay:10.37,2013-02-01 00:34:00,
2013-01-31 19:39:00,43.8,25.9,30.09,North,360,0.0,0.0,49,0.00,CLR,,0.00,WeatherDisplay:10.37,2013-02-01 00:39:00,
2013-01-31 19:44:00,43.5,26.1,30.09,North,360,0.0,0.0,50,0.00,CLR,,0.00,WeatherDisplay:10.37,2013-02-01 00:44:00,
2013-01-31 19:49:00,43.3,25.9,30.09,North,360,0.0,0.0,50,0.00,CLR,,0.00,WeatherDisplay:10.37,2013-02-01 00:49:00,
2013-01-31 19:55:00,42.9,26.0,30.09,North,360,0.0,0.0,51,0.00,CLR,,0.00,WeatherDisplay:10.37,2013-02-01 00:55:00,
2013-01-31 20:00:00,42.6,25.7,30.10,North,360,0.0,0.0,51,0.00,CLR,,0.00,WeatherDisplay:10.37,2013-02-01 01:00:00,
2013-01-31 20:05:00,42.4,26.0,30.10,North,360,0.0,0.0,52,0.00,CLR,,0.00,WeatherDisplay:10.37,2013-02-01 01:05:00,
2013-01-31 20:10:00,42.3,25.9,30.10,North,360,0.0,0.0,52,0.00,CLR,,0.00,WeatherDisplay:10.37,2013-02-01 01:10:00,
2013-01-31 20:15:00,42.2,26.3,30.10,North,360,0.0,0.0,53,0.00,CLR,,0.00,WeatherDisplay:10.37,2013-02-01 01:15:00,
2013-01-31 20:20:00,42.0,26.1,30.11,North,360,0.0,0.0,53,0.00,CLR,,0.00,WeatherDisplay:10.37,2013-02-01 01:20:00,
2013-01-31 20:25:00,41.7,26.3,30.11,North,360,0.0,0.0,54,0.00,CLR,,0.00,WeatherDisplay:10.37,2013-02-01 01:25:00,
2013-01-31 20:30:00,41.4,26.4,30.11,North,360,0.0,0.0,55,0.00,CLR,,0.00,WeatherDisplay:10.37,2013-02-01 01:30:00,
2013-01-31 20:35:00,41.1,26.6,30.11,North,360,0.0,0.0,56,0.00,CLR,,0.00,WeatherDisplay:10.37,2013-02-01 01:35:00,
2013-01-31 20:40:00,40.8,26.7,30.11,North,360,0.0,0.0,57,0.00,CLR,,0.00,WeatherDisplay:10.37,2013-02-01 01:40:00,
2013-01-31 20:45:00,40.5,26.4,30.11,North,360,0.0,0.0,57,0.00,CLR,,0.00,WeatherDisplay:10.37,2013-02-01 01:45:00,
2013-01-31 20:50:00,40.2,26.2,30.11,North,360,0.0,0.0,57,0.00,CLR,,0.00,WeatherDisplay:10.37,2013-02-01 01:50:00,
2013-01-31 20:55:00,39.9,25.9,30.11,North,360,0.0,0.0,57,0.00,CLR,,0.00,WeatherDisplay:10.37,2013-02-01 01:55:00,
2013-01-31 21:00:00,39.7,26.1,30.11,North,360,0.0,0.0,58,0.00,CLR,,0.00,WeatherDisplay:10.37,2013-02-01 02:00:00,
2013-01-31 21:05:00,39.4,26.2,30.12,North,360,0.0,0.0,59,0.00,CLR,,0.00,WeatherDisplay:10.37,2013-02-01 02:05:00,
2013-01-31 21:10:00,39.2,26.1,30.13,North,360,0.0,0.0,59,0.00,CLR,,0.00,WeatherDisplay:10.37,2013-02-01 02:10:00,
2013-01-31 21:15:00,39.1,26.4,30.12,North,360,0.0,0.0,60,0.00,CLR,,0.00,WeatherDisplay:10.37,2013-02-01 02:15:00,
2013-01-31 21:20:00,38.9,26.6,30.13,North,360,0.0,0.0,61,0.00,CLR,,0.00,WeatherDisplay:10.37,2013-02-01 02:20:00,
2013-01-31 21:25:00,38.7,26.4,30.12,North,360,0.0,0.0,61,0.00,CLR,,0.00,WeatherDisplay:10.37,2013-02-01 02:25:00,
2013-01-31 21:30:00,38.6,26.3,30.12,North,360,0.0,0.0,61,0.00,CLR,,0.00,WeatherDisplay:10.37,2013-02-01 02:30:00,
2013-01-31 21:35:00,38.5,26.6,30.13,North,360,0.0,0.0,62,0.00,CLR,,0.00,WeatherDisplay:10.37,2013-02-01 02:35:00,
2013-01-31 21:40:00,38.4,26.5,30.14,North,360,0.0,0.0,62,0.00,CLR,,0.00,WeatherDisplay:10.37,2013-02-01 02:40:00,
2013-01-31 21:45:00,38.4,26.9,30.13,North,360,0.0,0.0,63,0.00,CLR,,0.00,WeatherDisplay:10.37,2013-02-01 02:45:00,
2013-01-31 21:50:00,38.3,26.8,30.13,North,360,0.0,0.0,63,0.00,CLR,,0.00,WeatherDisplay:10.37,2013-02-01 02:50:00,
2013-01-31 21:55:00,38.2,26.7,30.13,North,360,0.0,0.0,63,0.00,CLR,,0.00,WeatherDisplay:10.37,2013-02-01 02:55:00,
2013-01-31 22:00:00,38.0,26.5,30.14,North,360,0.0,0.0,63,0.00,CLR,,0.00,WeatherDisplay:10.37,2013-02-01 03:00:00,
2013-01-31 22:05:00,37.9,26.4,30.14,North,360,0.0,0.0,63,0.00,CLR,,0.00,WeatherDisplay:10.37,2013-02-01 03:05:00,
2013-01-31 22:10:00,37.8,25.9,30.14,North,360,0.0,0.0,62,0.00,CLR,,0.00,WeatherDisplay:10.37,2013-02-01 03:10:00,
2013-01-31 22:15:00,37.8,25.9,30.14,North,360,0.0,0.0,62,0.00,CLR,,0.00,WeatherDisplay:10.37,2013-02-01 03:15:00,
2013-01-31 22:20:00,37.8,25.9,30.14,North,360,0.0,0.0,62,0.00,CLR,,0.00,WeatherDisplay:10.37,2013-02-01 03:20:00,
2013-01-31 22:25:00,37.7,25.8,30.14,North,360,0.0,0.0,62,0.00,CLR,,0.00,WeatherDisplay:10.37,2013-02-01 03:25:00,
2013-01-31 22:30:00,37.8,26.7,30.14,North,360,0.0,0.0,64,0.00,CLR,,0.00,WeatherDisplay:10.37,2013-02-01 03:30:00,
2013-01-31 22:35:00,37.7,26.6,30.15,North,360,0.0,0.0,64,0.00,CLR,,0.00,WeatherDisplay:10.37,2013-02-01 03:35:00,
2013-01-31 22:40:00,37.5,26.8,30.15,North,360,0.0,0.0,65,0.00,CLR,,0.00,WeatherDisplay:10.37,2013-02-01 03:40:00,
2013-01-31 22:45:00,37.3,27.0,30.15,North,360,0.0,0.0,66,0.00,CLR,,0.00,WeatherDisplay:10.37,2013-02-01 03:45:00,
2013-01-31 22:50:00,37.1,27.2,30.15,North,360,0.0,0.0,67,0.00,CLR,,0.00,WeatherDisplay:10.37,2013-02-01 03:50:00,
2013-01-31 22:55:00,36.9,27.3,30.15,North,360,0.0,0.0,68,0.00,CLR,,0.00,WeatherDisplay:10.37,2013-02-01 03:55:00,
2013-01-31 23:00:00,36.8,26.9,30.15,North,360,0.0,0.0,67,0.00,CLR,,0.00,WeatherDisplay:10.37,2013-02-01 04:00:00,
2013-01-31 23:05:00,36.8,26.9,30.15,North,360,0.0,0.0,67,0.00,CLR,,0.00,WeatherDisplay:10.37,2013-02-01 04:05:00,
2013-01-31 23:10:00,36.8,26.5,30.15,North,360,0.0,0.0,66,0.00,CLR,,0.00,WeatherDisplay:10.37,2013-02-01 04:10:00,
2013-01-31 23:15:00,36.8,26.5,30.15,North,360,0.0,0.0,66,0.00,CLR,,0.00,WeatherDisplay:10.37,2013-02-01 04:15:00,
2013-01-31 23:20:00,37.0,26.3,30.15,North,360,0.0,0.0,65,0.00,CLR,,0.00,WeatherDisplay:10.37,2013-02-01 04:20:00,
2013-01-31 23:25:00,37.0,26.3,30.15,North,360,0.0,0.0,65,0.00,CLR,,0.00,WeatherDisplay:10.37,2013-02-01 04:25:00,
2013-01-31 23:30:00,37.3,26.2,30.16,North,360,0.0,0.0,64,0.00,CLR,,0.00,WeatherDisplay:10.37,2013-02-01 04:30:00,
2013-01-31 23:35:00,37.8,25.9,30.16,North,360,0.0,0.0,62,0.00,CLR,,0.00,WeatherDisplay:10.37,2013-02-01 04:35:00,
2013-01-31 23:40:00,38.6,26.3,30.16,North,360,0.0,0.0,61,0.00,CLR,,0.00,WeatherDisplay:10.37,2013-02-01 04:40:00,
2013-01-31 23:45:00,39.1,26.4,30.16,North,360,1.2,0.0,60,0.00,CLR,,0.00,WeatherDisplay:10.37,2013-02-01 04:45:00,
2013-01-31 23:50:00,39.3,26.2,30.16,North,360,0.0,0.0,59,0.00,CLR,,0.00,WeatherDisplay:10.37,2013-02-01 04:50:00,
2013-01-31 23:55:00,39.6,26.4,30.16,North,360,0.0,0.0,59,0.00,CLR,,0.00,WeatherDisplay:10.37,2013-02-01 04:55:00,